Mount Pleasant, IA

4:39 AM CDT on June 25, 2017 (GMT -0500)
Mount Pleasant Municipal

Weather History for KMPZ - May, 2013

Change the Weather History Date:

Wednesday, May 15, 2013

  Actual Average Record
Temperature  
Mean Temperature 78 °F -  
Max Temperature 87 °F 72 °F 89 °F (2017)
Min Temperature 68 °F 50 °F 36 °F (1973)
Cooling Degree Days 12    
Growing Degree Days 28 (Base 50)    
Moisture  
Dew Point 40 °F    
Average Humidity 29    
Maximum Humidity 58    
Minimum Humidity 9    
Precipitation  
Precipitation 0.00 in - - ()
Sea Level Pressure  
Sea Level Pressure 29.84 in    
Wind  
Wind Speed 8 mph (WNW)    
Max Wind Speed 14 mph    
Max Gust Speed 21 mph    
Visibility 10 miles    
Events      
Averages and records for this station are not official NWS values.
T = Trace of Precipitation, MM = Missing Value Source: NWS Daily Summary

Daily Weather History Graph

Daily Weather History Graph

Search for Another Location

Airport or City:

Trip Planner

Search our weather history database for the weather conditions in past years. The results will help you decide how hot, cold, wet, or windy it might be!

Date:

Astronomy

May. 15, 2013 Rise Set
Actual Time 5:48 AM CDT 8:17 PM CDT
Civil Twilight 5:16 AM CDT 8:48 PM CDT
Nautical Twilight 4:37 AM CDT 9:27 PM CDT
Astronomical Twilight 3:54 AM CDT 10:11 PM CDT
Moon 10:24 AM CDT (5/15) 12:03 AM CDT (5/15)
Length of Visible Light 15h 31m
Length of Day
14h 29m
Waxing Crescent, 27% of the Moon is Illuminated
May 15
Waxing Crescent
May 17
First Quarter
May 24
Full
May 31
Last Quarter
Jun 8
New

Hourly Weather History & Observations

Time (CDT) Temp. Dew Point Humidity Pressure Visibility Wind Dir Wind Speed Gust Speed Precip Events Conditions
12:15 AM 81.0 °F 37.6 °F 21% 29.75 in 10.0 mi SW 13.8 mph - N/A   Clear
12:35 AM 80.6 °F 37.9 °F 22% 29.76 in 10.0 mi SW 13.8 mph - N/A   Clear
12:55 AM 78.6 °F 40.5 °F 26% 29.77 in 10.0 mi SW 11.5 mph - N/A   Clear
1:35 AM 76.1 °F 43.0 °F 31% 29.78 in 10.0 mi SW 11.5 mph - N/A   Clear
1:55 AM 75.9 °F 43.7 °F 32% 29.78 in 10.0 mi SW 10.4 mph - N/A   Clear
2:15 AM 75.7 °F 44.6 °F 33% 29.79 in 10.0 mi SW 11.5 mph - N/A   Clear
2:35 AM 75.4 °F 45.7 °F 35% 29.79 in 10.0 mi SW 10.4 mph - N/A   Clear
2:55 AM 73.4 °F 47.5 °F 40% 29.80 in 10.0 mi WSW 9.2 mph - N/A   Clear
3:15 AM 72.3 °F 48.4 °F 43% 29.81 in 10.0 mi WSW 9.2 mph - N/A   Clear
3:35 AM 73.6 °F 48.2 °F 41% 29.81 in 10.0 mi SW 10.4 mph - N/A   Clear
3:55 AM 72.9 °F 49.1 °F 43% 29.81 in 10.0 mi SW 10.4 mph - N/A   Clear
4:15 AM 72.5 °F 49.3 °F 44% 29.81 in 10.0 mi SW 11.5 mph - N/A   Clear
4:35 AM 72.5 °F 49.3 °F 44% 29.81 in 10.0 mi SW 12.7 mph - N/A   Clear
4:55 AM 72.0 °F 50.0 °F 46% 29.82 in 10.0 mi SW 11.5 mph - N/A   Clear
5:15 AM 72.5 °F 50.7 °F 46% 29.83 in 10.0 mi SW 10.4 mph - N/A   Clear
5:35 AM 71.2 °F 51.8 °F 50% 29.83 in 10.0 mi WSW 9.2 mph - N/A   Clear
5:55 AM 71.2 °F 52.7 °F 52% 29.84 in 10.0 mi SW 8.1 mph - N/A   Clear
6:15 AM 70.7 °F 53.6 °F 55% 29.84 in 10.0 mi SW 8.1 mph - N/A   Clear
6:35 AM 70.0 °F 54.1 °F 57% 29.84 in 10.0 mi SW 8.1 mph - N/A   Clear
6:55 AM 70.2 °F 54.9 °F 58% 29.84 in 10.0 mi SW 9.2 mph - N/A   Clear
7:15 AM 72.0 °F 55.4 °F 56% 29.84 in 10.0 mi SW 6.9 mph - N/A   Clear
7:35 AM 73.0 °F 55.8 °F 55% 29.85 in 10.0 mi Calm Calm - N/A   Clear
7:55 AM 74.7 °F 55.2 °F 51% 29.85 in 10.0 mi WSW 6.9 mph - N/A   Clear
8:15 AM 74.5 °F 54.9 °F 50% 29.85 in 10.0 mi West 6.9 mph - N/A   Clear
8:35 AM 75.2 °F 54.7 °F 49% 29.86 in 10.0 mi West 8.1 mph - N/A   Clear
8:55 AM 76.3 °F 54.5 °F 47% 29.86 in 10.0 mi West 8.1 mph - N/A   Clear
9:15 AM 76.5 °F 54.7 °F 47% 29.87 in 10.0 mi West 9.2 mph - N/A   Clear
9:35 AM 78.4 °F 53.6 °F 42% 29.87 in 10.0 mi WNW 5.8 mph - N/A   Clear
9:55 AM 77.5 °F 46.6 °F 33% 29.87 in 10.0 mi NNW 9.2 mph 20.7 mph N/A   Clear
10:15 AM 78.8 °F 38.5 °F 24% 29.87 in 10.0 mi North 4.6 mph - N/A   Clear
10:35 AM 78.1 °F 40.5 °F 26% 29.87 in 10.0 mi NNW 10.4 mph - N/A   Clear
10:55 AM 80.2 °F 35.4 °F 20% 29.87 in 10.0 mi North 3.5 mph - N/A   Clear
11:15 AM 81.5 °F 34.2 °F 18% 29.87 in 10.0 mi NE 3.5 mph - N/A   Clear
11:35 AM 82.9 °F 31.1 °F 15% 29.87 in 10.0 mi NE 3.5 mph - N/A   Clear
11:55 AM 81.7 °F 33.4 °F 18% 29.87 in 10.0 mi West 4.6 mph - N/A   Clear
12:15 PM 83.1 °F 35.2 °F 18% 29.87 in 10.0 mi West 4.6 mph - N/A   Clear
12:35 PM 83.3 °F 36.5 °F 19% 29.88 in 10.0 mi North 6.9 mph - N/A   Clear
12:55 PM 82.4 °F 38.8 °F 21% 29.87 in 10.0 mi North 10.4 mph - N/A   Clear
1:15 PM 83.3 °F 36.0 °F 18% 29.88 in 10.0 mi North 9.2 mph - N/A   Clear
1:35 PM 83.5 °F 36.9 °F 19% 29.87 in 10.0 mi NNW 6.9 mph - N/A   Clear
1:55 PM 83.7 °F 35.4 °F 18% 29.88 in 10.0 mi NNW 4.6 mph - N/A   Clear
2:15 PM 83.5 °F 36.0 °F 18% 29.88 in 10.0 mi Calm Calm - N/A   Clear
2:35 PM 84.2 °F 33.4 °F 16% 29.88 in 10.0 mi Calm Calm - N/A   Clear
2:55 PM 85.1 °F 37.0 °F 18% 29.87 in 10.0 mi NW 5.8 mph 20.7 mph N/A   Clear
3:15 PM 86.0 °F 33.4 °F 15% 29.86 in 10.0 mi North 5.8 mph - N/A   Clear
3:35 PM 85.5 °F 27.5 °F 12% 29.86 in 10.0 mi NNE 4.6 mph - N/A   Clear
3:55 PM 87.3 °F 25.2 °F 10% 29.85 in 10.0 mi NE 4.6 mph - N/A   Clear
4:15 PM 87.8 °F 27.9 °F 11% 29.84 in 10.0 mi NNE 6.9 mph - N/A   Clear
4:35 PM 86.2 °F 28.2 °F 12% 29.84 in 10.0 mi NNW 3.5 mph - N/A   Clear
4:55 PM 86.4 °F 28.0 °F 12% 29.84 in 10.0 mi NE 4.6 mph - N/A   Clear
5:15 PM 86.0 °F 26.1 °F 11% 29.84 in 10.0 mi Calm Calm - N/A   Clear
5:35 PM 86.5 °F 25.0 °F 11% 29.84 in 10.0 mi North 3.5 mph - N/A   Clear
5:55 PM 86.2 °F 25.9 °F 11% 29.84 in 10.0 mi NNW 4.6 mph - N/A   Clear
6:15 PM 86.0 °F 25.5 °F 11% 29.83 in 10.0 mi Calm Calm - N/A   Clear
6:35 PM 86.7 °F 24.6 °F 10% 29.83 in 10.0 mi South 4.6 mph - N/A   Clear
6:55 PM 86.0 °F 24.1 °F 10% 29.83 in 10.0 mi South 3.5 mph - N/A   Clear
7:15 PM 86.0 °F 21.7 °F 9% 29.84 in 10.0 mi Calm Calm - N/A   Clear
7:35 PM 84.7 °F 30.2 °F 14% 29.84 in 10.0 mi Calm Calm - N/A   Clear
7:55 PM 81.7 °F 38.7 °F 22% 29.84 in 10.0 mi Calm Calm - N/A   Clear
8:15 PM 81.5 °F 32.7 °F 17% 29.84 in 10.0 mi Calm Calm - N/A   Clear
8:35 PM 78.6 °F 36.5 °F 22% 29.84 in 10.0 mi Calm Calm - N/A   Clear
8:55 PM 78.8 °F 36.9 °F 22% 29.85 in 10.0 mi North 4.6 mph - N/A   Clear
9:15 PM 75.4 °F 38.8 °F 27% 29.85 in 10.0 mi North 5.8 mph - N/A   Clear
9:35 PM 76.1 °F 35.4 °F 23% 29.85 in 10.0 mi North 4.6 mph - N/A   Clear
9:55 PM 73.8 °F 39.6 °F 29% 29.85 in 10.0 mi North 3.5 mph - N/A   Clear
10:15 PM 75.2 °F 32.9 °F 21% 29.85 in 10.0 mi North 8.1 mph - N/A   Clear
10:35 PM 71.6 °F 41.0 °F 33% 29.86 in 10.0 mi North 3.5 mph - N/A   Clear
10:55 PM 69.3 °F 45.1 °F 42% 29.85 in 10.0 mi NNE 4.6 mph - N/A   Scattered Clouds
11:15 PM 70.0 °F 44.4 °F 40% 29.85 in 10.0 mi NNE 4.6 mph - N/A   Mostly Cloudy
11:35 PM 68.4 °F 44.8 °F 43% 29.85 in 10.0 mi Calm Calm - N/A   Scattered Clouds
11:55 PM 68.9 °F 47.8 °F 47% 29.86 in 10.0 mi Calm Calm - N/A   Scattered Clouds